Time,TemperatureF,DewpointF,PressureIn,WindDirection,WindDirectionDegrees,WindSpeedMPH,WindSpeedGustMPH,Humidity,HourlyPrecipIn,Conditions,Clouds,dailyrainin,SoftwareType,DateUTC
2013-02-22 00:00:00,34.5,26.0,30.12,NW,311,20.0,25.0,70,0.00,,,0.00,weatherlink.com 1.10,2013-02-22 05:00:00,
2013-02-22 00:15:00,34.4,25.0,30.13,NW,311,0.0,20.0,69,0.00,,,0.00,weatherlink.com 1.10,2013-02-22 05:15:00,
2013-02-22 00:30:00,34.3,25.0,30.14,NW,309,10.0,26.0,69,0.00,,,0.00,weatherlink.com 1.10,2013-02-22 05:30:00,
2013-02-22 00:46:00,34.3,25.0,30.15,West,278,9.0,21.0,69,0.00,,,0.00,weatherlink.com 1.10,2013-02-22 05:46:00,
2013-02-22 01:01:00,34.1,25.0,30.16,NNW,331,12.0,24.0,69,0.00,,,0.00,weatherlink.com 1.10,2013-02-22 06:01:00,
2013-02-22 01:16:00,34.0,25.0,30.16,WNW,288,8.0,18.0,69,0.00,,,0.00,weatherlink.com 1.10,2013-02-22 06:16:00,
2013-02-22 01:31:00,33.8,25.0,30.18,WNW,299,6.0,21.0,69,0.00,,,0.00,weatherlink.com 1.10,2013-02-22 06:31:00,
2013-02-22 01:46:00,33.4,25.0,30.18,WNW,294,9.0,18.0,70,0.00,,,0.00,weatherlink.com 1.10,2013-02-22 06:46:00,
2013-02-22 02:01:00,33.2,24.0,30.20,NW,315,9.0,25.0,69,0.00,,,0.00,weatherlink.com 1.10,2013-02-22 07:01:00,
2013-02-22 02:16:00,33.0,24.0,30.20,NW,311,7.0,21.0,70,0.00,,,0.00,weatherlink.com 1.10,2013-02-22 07:16:00,
2013-02-22 02:31:00,32.7,24.0,30.21,NNW,330,8.0,18.0,71,0.00,,,0.00,weatherlink.com 1.10,2013-02-22 07:31:00,
2013-02-22 02:46:00,32.5,24.0,30.22,WNW,291,15.0,21.0,71,0.00,,,0.00,weatherlink.com 1.10,2013-02-22 07:46:00,
2013-02-22 03:01:00,32.3,24.0,30.22,NW,304,7.0,21.0,71,0.00,,,0.00,weatherlink.com 1.10,2013-02-22 08:01:00,
2013-02-22 03:16:00,32.1,24.0,30.23,WNW,291,10.0,21.0,71,0.00,,,0.00,weatherlink.com 1.10,2013-02-22 08:16:00,
2013-02-22 03:31:00,31.8,24.0,30.23,WNW,299,11.0,13.0,72,0.00,,,0.00,weatherlink.com 1.10,2013-02-22 08:31:00,
2013-02-22 03:46:00,31.4,24.0,30.23,NW,324,6.0,18.0,74,0.00,,,0.00,weatherlink.com 1.10,2013-02-22 08:46:00,
2013-02-22 04:01:00,31.1,24.0,30.25,WNW,302,8.0,14.0,75,0.00,,,0.00,weatherlink.com 1.10,2013-02-22 09:01:00,
2013-02-22 04:16:00,30.6,24.0,30.26,WNW,286,16.0,16.0,76,0.00,,,0.00,weatherlink.com 1.10,2013-02-22 09:16:00,
2013-02-22 04:31:00,30.3,24.0,30.26,NW,307,14.0,16.0,77,0.00,,,0.00,weatherlink.com 1.10,2013-02-22 09:31:00,
2013-02-22 04:46:00,30.1,24.0,30.27,WNW,294,6.0,15.0,77,0.00,,,0.00,weatherlink.com 1.10,2013-02-22 09:46:00,
2013-02-22 05:01:00,29.8,23.0,30.27,NW,311,10.0,18.0,77,0.00,,,0.00,weatherlink.com 1.10,2013-02-22 10:01:00,
2013-02-22 05:16:00,29.6,23.0,30.27,WNW,288,14.0,16.0,77,0.00,,,0.00,weatherlink.com 1.10,2013-02-22 10:16:00,
2013-02-22 05:31:00,29.4,23.0,30.28,NW,322,6.0,18.0,77,0.00,,,0.00,weatherlink.com 1.10,2013-02-22 10:31:00,
2013-02-22 05:46:00,29.3,23.0,30.29,WNW,290,5.0,12.0,77,0.00,,,0.00,weatherlink.com 1.10,2013-02-22 10:46:00,
2013-02-22 06:01:00,29.1,23.0,30.29,West,279,8.0,15.0,77,0.00,,,0.00,weatherlink.com 1.10,2013-02-22 11:01:00,
2013-02-22 06:16:00,28.9,23.0,30.30,NNW,336,10.0,13.0,77,0.00,,,0.00,weatherlink.com 1.10,2013-02-22 11:16:00,
2013-02-22 06:31:00,28.6,23.0,30.30,WNW,302,5.0,15.0,78,0.00,,,0.00,weatherlink.com 1.10,2013-02-22 11:31:00,
2013-02-22 06:46:00,28.6,22.0,30.32,NW,313,5.0,16.0,77,0.00,,,0.00,weatherlink.com 1.10,2013-02-22 11:46:00,
2013-02-22 07:02:00,29.0,22.0,30.32,WNW,288,7.0,14.0,76,0.00,,,0.00,weatherlink.com 1.10,2013-02-22 12:02:00,
2013-02-22 07:17:00,29.6,23.0,30.33,NW,310,7.0,10.0,75,0.00,,,0.00,weatherlink.com 1.10,2013-02-22 12:17:00,
2013-02-22 07:32:00,30.2,23.0,30.34,WNW,296,9.0,22.0,73,0.00,,,0.00,weatherlink.com 1.10,2013-02-22 12:32:00,
2013-02-22 07:47:00,30.9,23.0,30.34,West,281,6.0,14.0,71,0.00,,,0.00,weatherlink.com 1.10,2013-02-22 12:47:00,
2013-02-22 08:02:00,31.5,23.0,30.36,NW,312,4.0,13.0,70,0.00,,,0.00,weatherlink.com 1.10,2013-02-22 13:02:00,
2013-02-22 08:17:00,31.9,22.0,30.36,NNW,328,8.0,12.0,67,0.00,,,0.00,weatherlink.com 1.10,2013-02-22 13:17:00,
2013-02-22 08:32:00,32.4,23.0,30.37,NNE,15,1.0,12.0,67,0.00,,,0.00,weatherlink.com 1.10,2013-02-22 13:32:00,
2013-02-22 08:47:00,32.7,22.0,30.38,West,281,8.0,13.0,65,0.00,,,0.00,weatherlink.com 1.10,2013-02-22 13:47:00,
2013-02-22 09:02:00,32.9,22.0,30.39,NNE,25,2.0,13.0,65,0.00,,,0.00,weatherlink.com 1.10,2013-02-22 14:02:00,
2013-02-22 09:17:00,33.5,23.0,30.39,NE,49,5.0,15.0,65,0.00,,,0.00,weatherlink.com 1.10,2013-02-22 14:17:00,
2013-02-22 09:32:00,34.3,24.0,30.39,NNE,18,2.0,11.0,65,0.00,,,0.00,weatherlink.com 1.10,2013-02-22 14:32:00,
2013-02-22 09:47:00,34.1,22.0,30.39,WNW,288,6.0,11.0,62,0.00,,,0.00,weatherlink.com 1.10,2013-02-22 14:47:00,
2013-02-22 10:02:00,33.9,22.0,30.38,WNW,294,7.0,15.0,63,0.00,,,0.00,weatherlink.com 1.10,2013-02-22 15:02:00,
2013-02-22 10:17:00,34.0,22.0,30.38,WNW,302,9.0,14.0,62,0.00,,,0.00,weatherlink.com 1.10,2013-02-22 15:17:00,
2013-02-22 10:32:00,34.9,23.0,30.39,SE,134,0.0,14.0,63,0.00,,,0.00,weatherlink.com 1.10,2013-02-22 15:32:00,
2013-02-22 10:47:00,35.3,23.0,30.38,West,273,4.0,12.0,61,0.00,,,0.00,weatherlink.com 1.10,2013-02-22 15:47:00,
2013-02-22 11:02:00,35.7,22.0,30.38,West,267,6.0,12.0,58,0.00,,,0.00,weatherlink.com 1.10,2013-02-22 16:02:00,
2013-02-22 11:17:00,35.5,22.0,30.38,West,261,4.0,12.0,59,0.00,,,0.00,weatherlink.com 1.10,2013-02-22 16:17:00,
2013-02-22 11:32:00,36.9,23.0,30.38,NNE,27,7.0,12.0,57,0.00,,,0.00,weatherlink.com 1.10,2013-02-22 16:32:00,
2013-02-22 11:47:00,37.5,23.0,30.37,NE,35,10.0,12.0,57,0.00,,,0.00,weatherlink.com 1.10,2013-02-22 16:47:00,
2013-02-22 12:02:00,36.8,21.0,30.36,NW,310,5.0,16.0,53,0.00,,,0.00,weatherlink.com 1.10,2013-02-22 17:02:00,
2013-02-22 12:17:00,37.2,21.0,30.36,NW,314,2.0,14.0,53,0.00,,,0.00,weatherlink.com 1.10,2013-02-22 17:17:00,
2013-02-22 12:32:00,37.6,22.0,30.35,ENE,59,6.0,11.0,54,0.00,,,0.00,weatherlink.com 1.10,2013-02-22 17:32:00,
2013-02-22 12:47:00,37.7,24.0,30.35,ENE,67,5.0,15.0,58,0.00,,,0.00,weatherlink.com 1.10,2013-02-22 17:47:00,
2013-02-22 13:02:00,37.0,26.0,30.35,NE,44,8.0,10.0,64,0.00,,,0.00,weatherlink.com 1.10,2013-02-22 18:02:00,
2013-02-22 13:32:00,36.4,25.0,30.35,NE,53,7.0,10.0,63,0.00,,,0.00,weatherlink.com 1.10,2013-02-22 18:32:00,
2013-02-22 13:47:00,36.8,24.0,30.35,ENE,65,9.0,9.0,60,0.00,,,0.00,weatherlink.com 1.10,2013-02-22 18:47:00,
2013-02-22 14:02:00,36.8,24.0,30.34,ENE,59,6.0,10.0,59,0.00,,,0.00,weatherlink.com 1.10,2013-02-22 19:02:00,
2013-02-22 14:17:00,37.2,24.0,30.34,NE,49,5.0,9.0,59,0.00,,,0.00,weatherlink.com 1.10,2013-02-22 19:17:00,
2013-02-22 14:32:00,36.9,24.0,30.34,NE,55,4.0,9.0,60,0.00,,,0.00,weatherlink.com 1.10,2013-02-22 19:32:00,
2013-02-22 14:47:00,36.5,25.0,30.34,NE,55,4.0,6.0,63,0.00,,,0.00,weatherlink.com 1.10,2013-02-22 19:47:00,
2013-02-22 15:02:00,36.9,25.0,30.35,ENE,61,4.0,6.0,62,0.00,,,0.00,weatherlink.com 1.10,2013-02-22 20:02:00,
2013-02-22 15:17:00,37.1,24.0,30.35,NE,46,2.0,5.0,60,0.00,,,0.00,weatherlink.com 1.10,2013-02-22 20:17:00,
2013-02-22 15:32:00,37.4,24.0,30.35,NE,50,0.0,5.0,60,0.00,,,0.00,weatherlink.com 1.10,2013-02-22 20:32:00,
2013-02-22 15:47:00,37.3,24.0,30.35,NE,56,6.0,7.0,60,0.00,,,0.00,weatherlink.com 1.10,2013-02-22 20:47:00,
2013-02-22 16:02:00,37.3,24.0,30.35,ENE,58,4.0,5.0,59,0.00,,,0.00,weatherlink.com 1.10,2013-02-22 21:02:00,
2013-02-22 16:17:00,36.7,25.0,30.34,NE,56,4.0,6.0,64,0.00,,,0.00,weatherlink.com 1.10,2013-02-22 21:17:00,
2013-02-22 16:32:00,36.2,25.0,30.34,ENE,57,5.0,8.0,63,0.00,,,0.00,weatherlink.com 1.10,2013-02-22 21:32:00,
2013-02-22 16:47:00,35.8,25.0,30.35,NE,53,1.0,3.0,64,0.00,,,0.00,weatherlink.com 1.10,2013-02-22 21:47:00,
2013-02-22 17:02:00,35.3,25.0,30.35,ENE,58,0.0,2.0,66,0.00,,,0.00,weatherlink.com 1.10,2013-02-22 22:02:00,
2013-02-22 17:17:00,34.3,24.0,30.35,ENE,58,0.0,0.0,67,0.00,,,0.00,weatherlink.com 1.10,2013-02-22 22:17:00,
2013-02-22 17:32:00,33.6,24.0,30.35,ENE,58,0.0,0.0,68,0.00,,,0.00,weatherlink.com 1.10,2013-02-22 22:32:00,
2013-02-22 17:47:00,32.7,24.0,30.36,ENE,57,0.0,0.0,70,0.00,,,0.00,weatherlink.com 1.10,2013-02-22 22:47:00,
2013-02-22 18:02:00,31.9,23.0,30.37,WSW,253,0.0,0.0,71,0.00,,,0.00,weatherlink.com 1.10,2013-02-22 23:02:00,
2013-02-22 18:17:00,31.6,24.0,30.36,WSW,254,0.0,0.0,72,0.00,,,0.00,weatherlink.com 1.10,2013-02-22 23:17:00,
2013-02-22 18:32:00,30.1,23.0,30.36,WSW,254,0.0,0.0,76,0.00,,,0.00,weatherlink.com 1.10,2013-02-22 23:32:00,
2013-02-22 18:47:00,29.4,23.0,30.36,West,271,0.0,0.0,78,0.00,,,0.00,weatherlink.com 1.10,2013-02-22 23:47:00,
2013-02-22 19:02:00,29.3,23.0,30.36,West,276,0.0,0.0,78,0.00,,,0.00,weatherlink.com 1.10,2013-02-23 00:02:00,
2013-02-22 19:17:00,29.6,23.0,30.36,West,269,0.0,0.0,77,0.00,,,0.00,weatherlink.com 1.10,2013-02-23 00:17:00,
2013-02-22 19:32:00,29.5,23.0,30.36,West,267,0.0,0.0,76,0.00,,,0.00,weatherlink.com 1.10,2013-02-23 00:32:00,
2013-02-22 19:47:00,29.5,23.0,30.36,West,271,0.0,0.0,76,0.00,,,0.00,weatherlink.com 1.10,2013-02-23 00:47:00,
2013-02-22 20:02:00,29.0,23.0,30.37,West,273,1.0,2.0,77,0.00,,,0.00,weatherlink.com 1.10,2013-02-23 01:02:00,
2013-02-22 20:17:00,29.6,23.0,30.37,WNW,303,1.0,5.0,76,0.00,,,0.00,weatherlink.com 1.10,2013-02-23 01:17:00,
2013-02-22 20:32:00,29.4,22.0,30.38,West,279,1.0,2.0,75,0.00,,,0.00,weatherlink.com 1.10,2013-02-23 01:32:00,
2013-02-22 20:47:00,28.8,22.0,30.38,WNW,289,0.0,0.0,77,0.00,,,0.00,weatherlink.com 1.10,2013-02-23 01:47:00,
2013-02-22 21:02:00,28.9,23.0,30.38,NW,314,2.0,5.0,77,0.00,,,0.00,weatherlink.com 1.10,2013-02-23 02:02:00,
2013-02-22 21:17:00,28.8,22.0,30.39,WNW,294,1.0,5.0,76,0.00,,,0.00,weatherlink.com 1.10,2013-02-23 02:17:00,
2013-02-22 21:32:00,29.1,22.0,30.39,NW,304,0.0,4.0,75,0.00,,,0.00,weatherlink.com 1.10,2013-02-23 02:32:00,
2013-02-22 21:47:00,28.7,22.0,30.39,West,281,0.0,1.0,75,0.00,,,0.00,weatherlink.com 1.10,2013-02-23 02:47:00,
2013-02-22 22:02:00,27.8,21.0,30.39,WNW,286,0.0,1.0,77,0.00,,,0.00,weatherlink.com 1.10,2013-02-23 03:02:00,
2013-02-22 22:18:00,27.4,22.0,30.38,NW,325,0.0,1.0,79,0.00,,,0.00,weatherlink.com 1.10,2013-02-23 03:18:00,
2013-02-22 22:33:00,27.3,22.0,30.38,NW,305,0.0,0.0,79,0.00,,,0.00,weatherlink.com 1.10,2013-02-23 03:33:00,
2013-02-22 22:48:00,27.6,22.0,30.39,WNW,303,0.0,2.0,78,0.00,,,0.00,weatherlink.com 1.10,2013-02-23 03:48:00,
2013-02-22 23:03:00,27.8,22.0,30.37,NE,35,0.0,5.0,78,0.00,,,0.00,weatherlink.com 1.10,2013-02-23 04:03:00,
2013-02-22 23:18:00,26.7,22.0,30.37,NW,310,1.0,1.0,83,0.00,,,0.00,weatherlink.com 1.10,2013-02-23 04:18:00,
2013-02-22 23:33:00,27.5,23.0,30.37,NNW,333,0.0,1.0,82,0.00,,,0.00,weatherlink.com 1.10,2013-02-23 04:33:00,
2013-02-22 23:48:00,28.0,23.0,30.37,NNW,329,0.0,0.0,81,0.00,,,0.00,weatherlink.com 1.10,2013-02-23 04:48:00,